Hurricane Symbol View the latest observations near Atlantic Tropical Depression Alberto.

Station OBGN6 - 8311030 - Ogdensburg, NY Image indicating link to RSS feed of recent meteorological observations for station OBGN6


Conditions at OBGN6 as of
(10:00 am EDT)
1400 GMT on 06/20/2024:
     

Click on the graph icon in the table below to see a time series plot of the last five days of that observation.

5-day plot - Atmospheric Pressure Atmospheric Pressure (PRES):30.23 in
5-day plot - Pressure Tendency Pressure Tendency (PTDY):+0.02 in ( Rising )
5-day plot - Air Temperature Air Temperature (ATMP): 79.9 °F
NOS Water Level Observation Network Water Level
Previous observations
TIME
(EDT)
5-day plot - Wind Direction
WDIR
 
5-day plot - Wind Speed
WSPD
kts
5-day plot - Wind Gust
GST
kts
5-day plot - Wave Height
WVHT
ft
5-day plot - Dominant Wave Period
DPD
sec
5-day plot - Average Wave Period
APD
sec
5-day plot - Mean Wave Direction
MWD
 
5-day plot - Atmospheric Pressure
PRES
in
5-day plot - Pressure Tendency
PTDY
in
5-day plot - Air Temperature
ATMP
°F
5-day plot - Water Temperature
WTMP
°F
5-day plot - Dew Point
DEWP
°F
5-day plot - Salinity
SAL
psu
5-day plot - Visibility
VIS
nmi
5-day plot - Tide (above MLLW)
TIDE
ft
2024-06-20 09:54 am-------30.24- 78.6-----
2024-06-20 09:48 am-------30.24- 77.7-----
2024-06-20 09:42 am-------30.24- 77.7-----
2024-06-20 09:36 am-------30.24- 77.7-----
2024-06-20 09:30 am-------30.24- 77.7-----
2024-06-20 09:24 am-------30.24- 77.7-----
2024-06-20 09:18 am-------30.24- 76.8-----
2024-06-20 09:12 am-------30.24- 75.7-----
2024-06-20 09:06 am-------30.24- 75.2-----
2024-06-20 09:00 am-------30.24+0.03 75.4-----
2024-06-20 08:54 am-------30.24- 75.4-----
2024-06-20 08:48 am-------30.24- 75.7-----
2024-06-20 08:42 am-------30.23- 75.6-----
2024-06-20 08:36 am-------30.24- 74.8-----
2024-06-20 08:30 am-------30.24- 75.6-----
2024-06-20 08:24 am-------30.24- 76.1-----
2024-06-20 08:18 am-------30.24- 77.4-----
2024-06-20 08:12 am-------30.24- 78.3-----
2024-06-20 08:06 am-------30.24- 78.1-----
2024-06-20 08:00 am-------30.23+0.02 77.7-----
2024-06-20 07:54 am-------30.23- 77.5-----
2024-06-20 07:48 am-------30.23- 77.4-----
2024-06-20 07:42 am-------30.22- 77.2-----
2024-06-20 07:36 am-------30.22- 76.8-----
2024-06-20 07:30 am-------30.22- 76.8-----
2024-06-20 07:24 am-------30.22- 76.8-----
2024-06-20 07:18 am-------30.21- 76.6-----
2024-06-20 07:12 am-------30.21- 75.7-----
2024-06-20 07:06 am-------30.21- 74.5-----
2024-06-20 07:00 am-------30.21+0.00 73.8-----
2024-06-20 06:54 am-------30.21- 73.2-----
2024-06-20 06:48 am-------30.21- 73.0-----
2024-06-20 06:42 am-------30.21- 73.8-----
2024-06-20 06:36 am-------30.21- 75.6-----
2024-06-20 06:30 am-------30.21- 75.9-----
2024-06-20 06:24 am-------30.21- 75.9-----
2024-06-20 06:18 am-------30.22- 75.7-----
2024-06-20 06:12 am-------30.22- 75.2-----
2024-06-20 06:06 am-------30.22- 74.1-----
2024-06-20 06:00 am-------30.22+0.02 73.8-----
2024-06-20 05:54 am-------30.21- 73.9-----
2024-06-20 05:48 am-------30.21- 74.1-----
2024-06-20 05:42 am-------30.22- 75.4-----
2024-06-20 05:36 am-------30.22- 75.9-----
2024-06-20 05:30 am-------30.22- 76.1-----
2024-06-20 05:24 am-------30.22- 76.3-----
2024-06-20 05:18 am-------30.22- 76.1-----
2024-06-20 05:12 am-------30.22- 75.7-----
2024-06-20 05:06 am-------30.21- 74.7-----
2024-06-20 05:00 am-------30.22+0.01 73.6-----
2024-06-20 04:54 am-------30.22- 73.0-----
2024-06-20 04:48 am-------30.22- 75.6-----
2024-06-20 04:42 am-------30.21- 75.7-----
2024-06-20 04:36 am-------30.21- 75.7-----
2024-06-20 04:30 am-------30.21- 75.7-----
2024-06-20 04:24 am-------30.21- 75.6-----
2024-06-20 04:18 am-------30.21- 76.1-----
2024-06-20 04:12 am-------30.21- 76.3-----
2024-06-20 04:06 am-------30.21- 76.3-----
2024-06-20 04:00 am-------30.21+0.01 75.6-----
2024-06-20 03:54 am-------30.21- 74.8-----
2024-06-20 03:48 am-------30.20- 75.0-----
2024-06-20 03:42 am-------30.20- 75.2-----
2024-06-20 03:36 am-------30.20- 73.8-----
2024-06-20 03:30 am-------30.20- 73.6-----
2024-06-20 03:24 am-------30.20- 73.2-----
2024-06-20 03:18 am-------30.19- 73.0-----
2024-06-20 03:12 am-------30.19- 74.1-----
2024-06-20 03:06 am-------30.19- 75.0-----
2024-06-20 03:00 am-------30.19+0.00 76.1-----
2024-06-20 02:54 am-------30.19- 77.0-----
2024-06-20 02:48 am-------30.19- 78.3-----
2024-06-20 02:42 am-------30.19- 78.3-----
2024-06-20 02:36 am-------30.20- 77.7-----
2024-06-20 02:30 am-------30.20- 77.9-----
2024-06-20 02:24 am-------30.20- 77.9-----
2024-06-20 02:18 am-------30.20- 78.1-----
2024-06-20 02:12 am-------30.20- 78.1-----
2024-06-20 02:06 am-------30.20- 78.3-----
2024-06-20 02:00 am-------30.20-0.01 78.4-----
2024-06-20 01:54 am-------30.20- 78.1-----
2024-06-20 01:48 am-------30.20- 77.9-----
2024-06-20 01:42 am-------30.20- 77.4-----
2024-06-20 01:36 am-------30.20- 77.2-----
2024-06-20 01:30 am-------30.20- 77.0-----
2024-06-20 01:24 am-------30.20- 77.0-----
2024-06-20 01:18 am-------30.20- 76.8-----
2024-06-20 01:12 am-------30.20- 76.1-----
2024-06-20 01:06 am-------30.20- 75.6-----
2024-06-20 01:00 am-------30.20-0.01 75.2-----
2024-06-20 12:54 am-------30.20- 75.6-----
2024-06-20 12:48 am-------30.20- 75.6-----
2024-06-20 12:42 am-------30.20- 75.4-----
2024-06-20 12:36 am-------30.20- 75.2-----
2024-06-20 12:30 am-------30.20- 74.7-----
2024-06-20 12:24 am-------30.20- 76.3-----
2024-06-20 12:18 am-------30.20- 78.3-----
2024-06-20 12:12 am-------30.20- 79.3-----
2024-06-20 12:06 am-------30.20- 79.3-----
2024-06-20 12:00 am-------30.20+0.02 79.5-----
2024-06-19 11:54 pm-------30.20- 79.7-----
2024-06-19 11:48 pm-------30.20- 79.5-----
2024-06-19 11:42 pm-------30.20- 78.8-----
2024-06-19 11:36 pm-------30.20- 79.2-----
2024-06-19 11:30 pm-------30.20- 78.8-----
2024-06-19 11:24 pm-------30.20- 79.3-----
2024-06-19 11:18 pm-------30.21- 77.7-----
2024-06-19 11:12 pm-------30.21- 75.0-----
2024-06-19 11:06 pm-------30.21- 74.3-----
2024-06-19 11:00 pm-------30.21+0.04 76.1-----
2024-06-19 10:54 pm-------30.21- 78.1-----
2024-06-19 10:48 pm-------30.21- 79.2-----
2024-06-19 10:42 pm-------30.21- 80.8-----
2024-06-19 10:36 pm-------30.21- 81.0-----
2024-06-19 10:30 pm-------30.20- 80.8-----
2024-06-19 10:24 pm-------30.20- 81.0-----
2024-06-19 10:18 pm-------30.21- 80.6-----
2024-06-19 10:12 pm-------30.21- 80.2-----
2024-06-19 10:06 pm-------30.21- 79.9-----
2024-06-19 10:00 pm-------30.21+0.04 76.8-----
2024-06-19 09:54 pm-------30.21- 76.3-----
2024-06-19 09:48 pm-------30.21- 75.6-----
2024-06-19 09:42 pm-------30.20- 75.7-----
2024-06-19 09:36 pm-------30.20- 76.1-----
2024-06-19 09:30 pm-------30.19- 78.1-----
2024-06-19 09:24 pm-------30.19- 81.0-----
2024-06-19 09:18 pm-------30.19- 81.3-----
2024-06-19 09:12 pm-------30.19- 81.7-----
2024-06-19 09:06 pm-------30.18- 81.7-----
2024-06-19 09:00 pm-------30.18+0.01 81.9-----
2024-06-19 08:54 pm-------30.18- 81.9-----
2024-06-19 08:48 pm-------30.18- 82.0-----
2024-06-19 08:42 pm-------30.17- 82.0-----
2024-06-19 08:36 pm-------30.17- 82.4-----
2024-06-19 08:30 pm-------30.17- 82.4-----
2024-06-19 08:24 pm-------30.17- 82.4-----
2024-06-19 08:18 pm-------30.17- 82.0-----
2024-06-19 08:12 pm-------30.17- 81.7-----
2024-06-19 08:06 pm-------30.17- 81.3-----
2024-06-19 08:00 pm-------30.18+0.00 80.8-----
2024-06-19 07:54 pm-------30.18- 79.3-----
2024-06-19 07:48 pm-------30.17- 78.8-----
2024-06-19 07:42 pm-------30.17- 77.9-----
2024-06-19 07:36 pm-------30.17- 81.0-----
2024-06-19 07:30 pm-------30.16- 85.5-----
2024-06-19 07:24 pm-------30.16- 84.9-----
2024-06-19 07:18 pm-------30.16- 84.4-----
2024-06-19 07:12 pm-------30.16- 83.3-----
2024-06-19 07:06 pm-------30.16- 83.7-----
2024-06-19 07:00 pm-------30.16-0.02 84.7-----
2024-06-19 06:54 pm-------30.16- 83.1-----
2024-06-19 06:48 pm-------30.17-------
2024-06-19 06:42 pm-------30.17-------
2024-06-19 06:36 pm-------30.17-------
2024-06-19 06:30 pm-------30.16- 83.8-----
2024-06-19 06:24 pm-------30.16- 84.0-----
2024-06-19 06:18 pm-------30.16- 82.6-----
2024-06-19 06:12 pm-------30.17- 82.4-----
2024-06-19 06:06 pm-------30.17- 81.5-----
2024-06-19 06:00 pm-------30.16-0.03 81.9-----
2024-06-19 05:54 pm-------30.16- 82.6-----
2024-06-19 05:48 pm-------30.17- 82.6-----
2024-06-19 05:42 pm-------30.17- 82.0-----
2024-06-19 05:36 pm-------30.17- 81.9-----
2024-06-19 05:30 pm-------30.17- 81.1-----
2024-06-19 05:24 pm-------30.17- 81.0-----
2024-06-19 05:18 pm-------30.17- 81.0-----
2024-06-19 05:12 pm-------30.17- 81.3-----
2024-06-19 05:06 pm-------30.17- 81.1-----
2024-06-19 05:00 pm-------30.18-0.01 80.6-----
2024-06-19 04:54 pm-------30.18- 81.9-----
2024-06-19 04:48 pm-------30.18- 81.3-----
2024-06-19 04:42 pm-------30.19- 81.5-----
2024-06-19 04:36 pm-------30.19- 82.0-----
2024-06-19 04:30 pm-------30.18- 82.6-----
2024-06-19 04:24 pm-------30.18- 83.3-----
2024-06-19 04:18 pm-------30.18- 83.8-----
2024-06-19 04:12 pm-------30.19- 82.9-----
2024-06-19 04:06 pm-------30.19- 81.3-----
2024-06-19 04:00 pm-------30.19-0.03 81.7-----
2024-06-19 03:54 pm-------30.19- 82.6-----
2024-06-19 03:48 pm-------30.19- 83.7-----
2024-06-19 03:42 pm-------30.19- 83.8-----
2024-06-19 03:36 pm-------30.19- 82.8-----
2024-06-19 03:30 pm-------30.19- 83.8-----
2024-06-19 03:24 pm-------30.19- 84.7-----
2024-06-19 03:18 pm-------30.19- 84.0-----
2024-06-19 03:12 pm-------30.19- 83.3-----
2024-06-19 03:06 pm-------30.19- 83.7-----
2024-06-19 03:00 pm-------30.19-0.03 83.7-----
2024-06-19 02:54 pm-------30.19- 83.1-----
2024-06-19 02:48 pm-------30.19- 82.9-----
2024-06-19 02:42 pm-------30.19- 83.5-----
2024-06-19 02:36 pm-------30.20- 82.9-----
2024-06-19 02:30 pm-------30.20- 82.0-----
2024-06-19 02:24 pm-------30.19- 82.9-----
2024-06-19 02:18 pm-------30.19- 82.2-----
2024-06-19 02:12 pm-------30.19- 81.9-----
2024-06-19 02:06 pm-------30.19- 80.4-----
2024-06-19 02:00 pm-------30.19-0.03 82.0-----
2024-06-19 01:54 pm-------30.19- 84.0-----
2024-06-19 01:48 pm-------30.19- 84.6-----
2024-06-19 01:42 pm-------30.20- 84.4-----
2024-06-19 01:36 pm-------30.20- 83.3-----
2024-06-19 01:30 pm-------30.21- 82.9-----
2024-06-19 01:24 pm-------30.21- 82.6-----
2024-06-19 01:18 pm-------30.21- 82.4-----
2024-06-19 01:12 pm-------30.21- 82.6-----
2024-06-19 01:06 pm-------30.21- 82.4-----
2024-06-19 01:00 pm-------30.22-0.01 82.2-----
2024-06-19 12:54 pm-------30.22- 81.5-----
2024-06-19 12:48 pm-------30.21- 80.4-----
2024-06-19 12:42 pm-------30.21- 80.1-----
2024-06-19 12:36 pm-------30.21- 80.6-----
2024-06-19 12:30 pm-------30.21- 79.2-----
2024-06-19 12:24 pm-------30.21- 79.7-----
2024-06-19 12:18 pm-------30.21- 80.6-----
2024-06-19 12:12 pm-------30.21- 81.3-----
2024-06-19 12:06 pm-------30.22- 80.6-----
2024-06-19 12:00 pm-------30.22+0.00 81.5-----
2024-06-19 11:54 am-------30.22- 82.2-----
2024-06-19 11:48 am-------30.22- 81.9-----
2024-06-19 11:42 am-------30.22- 81.5-----
2024-06-19 11:36 am-------30.22- 80.6-----
2024-06-19 11:30 am-------30.22- 79.3-----
2024-06-19 11:24 am-------30.23- 81.0-----
2024-06-19 11:18 am-------30.23- 80.8-----
2024-06-19 11:12 am-------30.22- 80.4-----
2024-06-19 11:06 am-------30.22- 80.6-----
2024-06-19 11:00 am-------30.22+0.01 80.4-----
2024-06-19 10:54 am-------30.22- 80.4-----
2024-06-19 10:48 am-------30.22- 80.1-----
2024-06-19 10:42 am-------30.22- 79.5-----
2024-06-19 10:36 am-------30.22- 79.7-----
2024-06-19 10:30 am-------30.22- 79.5-----
2024-06-19 10:24 am-------30.22- 79.3-----
2024-06-19 10:18 am-------30.22- 79.0-----
2024-06-19 10:12 am-------30.22- 78.6-----
2024-06-19 10:06 am-------30.22- 78.8-----
2024-06-19 10:00 am-------30.22+0.02 79.2-----
2024-06-19 09:54 am-------30.22- 79.3-----